Weather History for Kansas City International, MO

Change the Weather History Date:

Wednesday, July 24, 2013

  Actual Average Record
Temperature  
Mean Temperature 74 °F 79 °F  
Max Temperature 86 °F 89 °F 110 °F (1934)
Min Temperature 61 °F 69 °F 57 °F (2004)
Degree Days  
Heating Degree Days 0 0  
Month to date heating degree days 0 0  
Since 1 June heating degree days 17 9  
Since 1 July heating degree days 0 0  
Cooling Degree Days 9 14  
Month to date cooling degree days 322 321  
Year to date cooling degree days 703 703  
Since 1 June cooling degree days 598 587  
Growing Degree Days 24 (Base 50)    
Moisture  
Dew Point 57 °F    
Average Humidity 59    
Maximum Humidity 84    
Minimum Humidity 34    
Precipitation  
Precipitation 0.00 in 0.13 in 2.35 in (1900)
Month to date precipitation 0.20 3.60  
Year to date precipitation 18.25 22.66  
Snow  
Snow 0.00 in 0.00 in 0.00 in ()
Month to date snowfall 0.0 0.0  
Since 1 June snowfall 0.0 0.0  
Since 1 July snowfall 0.0 0.0  
Snow Depth 0.00 in    
Sea Level Pressure  
Sea Level Pressure 30.00 in    
Wind  
Wind Speed 8 mph (NE)    
Max Wind Speed 14 mph    
Max Gust Speed 21 mph    
Visibility 10 miles    
Events      
T = Trace of Precipitation, MM = Missing Value Source: NWS Daily Summary

Daily Weather History Graph

Daily Weather History Graph

Search for Another Location

Airport:

Trip Planner

Search our weather history database for the weather conditions in past years. The results will help you decide how hot, cold, wet, or windy it might be!

Date:

Astronomy

Jul. 24, 2013 Rise Set
Actual Time 6:12 AM CDT 8:38 PM CDT
Civil Twilight 5:41 AM CDT 9:08 PM CDT
Nautical Twilight 5:03 AM CDT 9:46 PM CDT
Astronomical Twilight 4:21 AM CDT 10:28 PM CDT
Moon 9:46 PM CDT (7/24) 8:32 AM CDT (7/24)
Length of Visible Light 15h 27m
Length of Day
14h 26m
Waning Gibbous, 94% of the Moon is Illuminated
Jul 24
Waning Gibbous
Jul 29
Last Quarter
Aug 6
New
Aug 14
First Quarter
Aug 20
Full

Hourly Weather History & Observations

Time (CDT) Temp. Heat Index Dew Point Humidity Pressure Visibility Wind Dir Wind Speed Gust Speed Precip Events Conditions
12:53 AM 70.0 °F - 57.9 °F 65% 29.94 in 10.0 mi ENE 10.4 mph - N/A   Overcast
1:53 AM 68.0 °F - 57.0 °F 68% 29.94 in 10.0 mi NE 10.4 mph - N/A   Overcast
2:53 AM 68.0 °F - 57.0 °F 68% 29.96 in 10.0 mi ENE 9.2 mph - N/A   Overcast
3:05 AM 68.0 °F - 57.2 °F 68% 29.99 in 10.0 mi ENE 9.2 mph - N/A   Overcast
3:53 AM 68.0 °F - 57.0 °F 68% 29.96 in 10.0 mi ENE 9.2 mph - N/A   Overcast
4:14 AM 66.2 °F - 57.2 °F 73% 30.01 in 10.0 mi East 5.8 mph - N/A   Mostly Cloudy
4:53 AM 64.0 °F - 57.0 °F 78% 29.98 in 10.0 mi NE 6.9 mph - N/A   Scattered Clouds
5:53 AM 61.0 °F - 55.9 °F 83% 30.00 in 10.0 mi North 5.8 mph - N/A   Scattered Clouds
6:53 AM 63.0 °F - 57.9 °F 84% 30.00 in 10.0 mi NE 5.8 mph - N/A   Scattered Clouds
7:53 AM 66.9 °F - 57.9 °F 73% 30.00 in 10.0 mi NNE 8.1 mph - N/A   Partly Cloudy
8:53 AM 71.1 °F - 57.9 °F 63% 30.01 in 10.0 mi NE 8.1 mph - N/A   Partly Cloudy
9:53 AM 73.9 °F - 57.9 °F 57% 30.03 in 10.0 mi North 9.2 mph - N/A   Partly Cloudy
10:53 AM 75.9 °F - 57.0 °F 52% 30.03 in 10.0 mi ENE 4.6 mph - N/A   Clear
11:53 AM 80.1 °F 80.4 °F 57.0 °F 45% 30.04 in 10.0 mi NE 5.8 mph - N/A   Partly Cloudy
12:53 PM 82.9 °F 82.0 °F 55.0 °F 38% 30.02 in 10.0 mi North 9.2 mph - N/A   Partly Cloudy
1:53 PM 84.0 °F 82.6 °F 54.0 °F 35% 30.01 in 10.0 mi NNE 11.5 mph 18.4 mph N/A   Partly Cloudy
2:53 PM 84.9 °F 83.7 °F 55.9 °F 37% 30.01 in 10.0 mi Variable 6.9 mph 17.3 mph N/A   Partly Cloudy
3:53 PM 86.0 °F 84.7 °F 55.9 °F 36% 30.00 in 10.0 mi NNE 11.5 mph 16.1 mph N/A   Partly Cloudy
4:53 PM 86.0 °F 84.7 °F 55.9 °F 36% 29.99 in 10.0 mi NNW 12.7 mph - N/A   Partly Cloudy
5:53 PM 84.9 °F 83.9 °F 57.0 °F 38% 29.99 in 10.0 mi NNE 10.4 mph - N/A   Scattered Clouds
6:53 PM 84.0 °F 83.0 °F 55.9 °F 38% 29.98 in 10.0 mi North 9.2 mph - N/A   Scattered Clouds
7:53 PM 81.0 °F 80.8 °F 55.9 °F 42% 29.99 in 10.0 mi NE 8.1 mph - N/A   Mostly Cloudy
8:53 PM 75.0 °F - 57.0 °F 53% 29.99 in 10.0 mi NNE 6.9 mph - N/A   Mostly Cloudy
9:53 PM 75.9 °F - 57.0 °F 52% 30.00 in 10.0 mi East 9.2 mph - N/A   Mostly Cloudy
10:53 PM 75.0 °F - 55.9 °F 51% 30.02 in 10.0 mi ENE 6.9 mph - N/A   Mostly Cloudy
11:53 PM 73.9 °F - 55.9 °F 53% 30.03 in 10.0 mi East 9.2 mph - N/A   Mostly Cloudy